Regional Weather Roundup
Issued by NWS

Home | Current Version | Previous Version | Text Only | Print | Product List | Glossary On
Versions: 1 2 3 4 5 6 7 8 9 10 11 12 13 14 15 16 17 18 19 20 21 22 23 24 25 26 27 28 29 30 31 32 33 34 35 36 37 38 39 40 41 42 43 44 45 46 47 48 49 50
000
ASUS43 KDMX 250507
RWRIA

WEATHER ROUNDUP FOR IOWA
NATIONAL WEATHER SERVICE DES MOINES IA
1100 PM CST SAT JAN 24 2015

NOTE: "FAIR" INDICATES FEW OR NO CLOUDS BELOW 12,000 FEET WITH NO
SIGNIFICANT WEATHER AND/OR OBSTRUCTIONS TO VISIBILITY.

* - THESE STATIONS ARE NOT NWS STATIONS...THUS NOT UNDER NWS
QUALITY CONTROL.  THEY ALSO DO NOT REPORT WEATHER SUCH
AS PRECIPITATION OR FOG.

IAZ001>003-012>014-020>022-031>034-043>046-250600-
   NORTHWEST IOWA

CITY           SKY/WX    TMP DP  RH WIND       PRES   REMARKS
CARROLL *      CLOUDY    41  36  81 CALM      29.54S
CHEROKEE *     CLOUDY    34  34 100 CALM      29.56R
DENISON *      CLOUDY    43  37  81 W6        29.53S
LE MARS *      CLOUDY    41  37  87 NW14G20   29.57R
ORANGE CITY *  CLOUDY    37  34  87 N6        29.56R WCI  33
SHELDON *      CLOUDY    36  36 100 N10       29.56R WCI  28
SIOUX CITY     LGT RAIN  43  41  93 NW15      29.58R
SPENCER        LGT RAIN  36  34  92 N9        29.57R WCI  29
STORM LAKE *   CLOUDY    36  34  93 NE3       29.55R
$$

IAZ055>058-069>071-079>083-090>094-250600-
   SOUTHWEST IOWA

CITY           SKY/WX    TMP DP  RH WIND       PRES   REMARKS
ATLANTIC *     CLOUDY    43  39  87 SW13      29.56F
AUDUBON *      CLOUDY    41  36  81 SW8       29.55F
CLARINDA *     CLOUDY    45  41  87 SW8       29.62F
COUNCIL BLFS * CLOUDY    45  43  93 NW9       29.58S
CRESTON *      MIX PCPN  41  36  81 SW8       29.58S
HARLAN  *      CLOUDY    43  43 100 W12       29.58F
LAMONI         CLOUDY    43  34  70 SW9       29.59F
RED OAK *      CLOUDY    45  41  87 SW10      29.59F
SHENANDOAH *   CLOUDY    43  41  93 SW10      29.62F
$$

IAZ047>049-059>061-072>074-084-250600-
   CENTRAL IOWA

CITY           SKY/WX    TMP DP  RH WIND       PRES   REMARKS
AMES           CLOUDY    38  32  79 E5        29.56S WCI  34
ANKENY *       CLOUDY    43  37  81 SW6       29.56F
CHARITON *     LGT RAIN  43  36  75 SW6       29.59S
DES MOINES     LGT RAIN  43  36  76 SW3       29.57F
GRINNELL*      CLOUDY    41  32  70 SW3       29.57S
KNOXVILLE *    MIX PCPN  45  34  65 SW9       29.56F
MARSHALLTOWN   CLOUDY    35  31  85 CALM      29.55F
PELLA *        DRIZZLE   42  34  74 W6        29.59S
PERRY *          N/A     41  37  87 SW6       29.55F
$$

IAZ004>006-015-016-023>025-035-036-250600-
   NORTH CENTRAL IOWA

CITY           SKY/WX    TMP DP  RH WIND       PRES   REMARKS
ALGONA *       CLOUDY    36  36 100 N16       29.56F WCI  26
CLARION *      CLOUDY    34  34 100 NE5       29.56S WCI  30
ESTHERVILLE    MIX PCPN  33  32  96 N12       29.57S WCI  24
FORT DODGE *   CLOUDY    37  32  81 N3        29.56S
MASON CITY     CLOUDY    33  32  96 CALM      29.58R
FOREST CITY *  PTCLDY    32  32 100 CALM      29.57S
IOWA FALLS *   CLOUDY    36  32  87 CALM      29.57S
$$

IAZ007>011-017>019-026>030-037>042-050>054-066-250600-
   NORTHEAST IOWA

CITY           SKY/WX    TMP DP  RH WIND       PRES   REMARKS
CEDAR RAPIDS   MOCLDY    34  31  88 E3        29.57F
CHARLES CITY * CLOUDY    34  34 100 E5        29.58S WCI  30
CLINTON *      CLOUDY    34  30  86 SE3       29.63F
DECORAH *      CLOUDY    34  34 100 CALM      29.59R
DUBUQUE        CLOUDY    34  31  88 CALM      29.60S
MONTICELLO *   CLOUDY    34  34 100 NE5       29.59F WCI  30
OELWEIN *      CLOUDY    34  34 100 E6        29.58S WCI  29
WATERLOO       CLOUDY    33  31  92 E3        29.57F
$$

IAZ064-065-067-068-078-250600-
   EAST CENTRAL IOWA

CITY           SKY/WX    TMP DP  RH WIND       PRES   REMARKS
DAVENPORT      CLOUDY    35  31  85 SE6       29.61S WCI  30
IOWA CITY      CLOUDY    33  30  88 CALM      29.60F
MT. PLEASANT * CLOUDY    37  32  81 S7        29.60F WCI  32
MUSCATINE *    PTCLDY    34  30  86 CALM      29.60S
QUAD CITIES    CLOUDY    33  30  88 E6        29.60F WCI  28
$$

IAZ062-063-075>077-085>089-095>099-250600-
   SOUTHEAST IOWA

CITY           SKY/WX    TMP DP  RH WIND       PRES   REMARKS
BURLINGTON     CLOUDY    39  33  79 S5        29.60F
FAIRFIELD *    CLOUDY    41  30  65 S8        29.59S
FORT MADISON * CLOUDY    45  36  70 SW7       29.61F
KEOKUK *       CLOUDY    43  34  70 SW7       29.61S
OSKALOOSA *    CLOUDY    39  30  70 SW7       29.58S WCI  34
CENTERVILLE *  MOCLDY    45  32  61 SW8       29.61S
OTTUMWA        LGT RAIN  42  31  64 S7        29.58F
WASHINGTON *   CLOUDY    37  36  93 S6        29.59S WCI  33
$$

ABBREVIATIONS USED IN REMARKS
   TC - TEMPERATURES IN CELSIUS
  WCI - WIND CHILL INDEX
   HX - HEAT INDEX
  VSB - VISIBILITY
$$



USA.gov is the U.S. government's official web portal to all federal, state and local government web resources and services.